Regional Weather Roundup
Issued by NWS

Home | Current Version | Previous Version | Text Only | Print | Product List | Glossary On
Versions: 1 2 3 4 5 6 7 8 9 10 11 12 13 14 15 16 17 18 19 20 21 22 23 24 25 26 27 28 29 30 31 32 33 34 35 36 37 38 39 40 41 42 43 44 45 46 47 48 49 50
000
ASUS43 KLMK 300910
RWRKY
KENTUCKY REGIONAL WEATHER ROUNDUP
NATIONAL WEATHER SERVICE LOUISVILLE KY
500 AM EDT MON MAY 30 2016

NOTE "FAIR" INDICATES FEW OR NO CLOUDS BELOW 12,000 FEET
WITH NO SIGNIFICANT WEATHER AND/OR OBSTRUCTIONS TO VISIBILITY.

KYZ001>023-026-027-061>063-070>075-301000-
WESTERN AND SOUTH CENTRAL KENTUCKY

CITY           SKY/WX    TMP DP  RH WIND       PRES   REMARKS
PADUCAH        CLEAR     62  60  93 CALM      30.03F
HENDERSON      CLEAR     64  59  82 CALM      30.03S
OWENSBORO      CLEAR     66  66 100 CALM      30.05R
HOPKINSVILLE   CLEAR     67  64  91 N3        30.04R
BOWLING GREEN  CLEAR     67  64  90 CALM      30.04S
GLASGOW        MOCLDY    65  65 100 CALM      30.04S
$$

KYZ024-025-028>034-038-045-046-053-301000-
NORTH CENTRAL KENTUCKY

CITY           SKY/WX    TMP DP  RH WIND       PRES   REMARKS
LOUISVILLE/SDF MOCLDY    69  61  75 CALM      30.02F
LOUISVILLE/LOU MOCLDY    66  61  84 CALM      30.03F
FORT KNOX      PTCLDY    61  60  96 CALM      30.03S
$$

KYZ035>037-039>044-047>052-055>060-089>105-301000-
NORTHEAST KENTUCKY

CITY           SKY/WX    TMP DP  RH WIND       PRES   REMARKS
LEXINGTON      PTCLDY    67  63  87 CALM      30.04S
COVINGTON      CLOUDY    66  64  93 S3        30.03F
FRANKFORT      CLOUDY    66  62  87 CALM      30.02F
$$

KYZ054-064>069-076>088-106>120-301000-
SOUTHEAST KENTUCKY

CITY           SKY/WX    TMP DP  RH WIND       PRES   REMARKS
JACKSON        MOCLDY    65  62  90 W3        30.08R
LONDON         PTCLDY    64  62  93 S3        30.06R
SOMERSET       CLOUDY    66  66 100 CALM      30.06F
MIDDLESBORO    FOG       60  60 100 CALM      30.08S VSB 3/4
MONTICELLO     CLOUDY    66  65  96 NE7       30.07S
$$





USA.gov is the U.S. government's official web portal to all federal, state and local government web resources and services.